| time (UTC) | temp F | wind direction | speed MPH | gust MPH | rain 1hr in | rain 24hr in | rain mn in | humidity % | barometer mb |
| 20260502220024 | 67 | 200 | 4.0 | 8.0 | 0.00 | 0.06 | 0.00 | 40 | 1021.1 |
| 20260502214520 | 66 | 236 | 4.0 | 11.0 | 0.00 | 0.10 | 0.00 | 40 | 1021.3 |
| 20260502213035 | 65 | 250 | 3.0 | 9.0 | 0.00 | 0.10 | 0.00 | 41 | 1021.5 |
| 20260502211516 | 65 | 208 | 3.0 | 7.0 | 0.00 | 0.10 | 0.00 | 42 | 1021.9 |
| 20260502210015 | 65 | 238 | 4.0 | 11.0 | 0.00 | 0.10 | 0.00 | 41 | 1022.1 |
| 20260502204514 | 66 | 360 | 4.0 | 9.0 | 0.00 | 0.10 | 0.00 | 41 | 1022.3 |
| 20260502203013 | 67 | 360 | 5.0 | 10.0 | 0.00 | 0.10 | 0.00 | 39 | 1022.5 |
| 20260502201522 | 65 | 360 | 2.0 | 6.0 | 0.00 | 0.10 | 0.00 | 42 | 1022.6 |
| 20260502200011 | 65 | 360 | 2.0 | 5.0 | 0.00 | 0.10 | 0.00 | 43 | 1022.8 |
| 20260502194512 | 65 | 214 | 4.0 | 10.0 | 0.00 | 0.10 | 0.00 | 40 | 1023.1 |
| 20260502193010 | 67 | 255 | 3.0 | 9.0 | 0.00 | 0.10 | 0.00 | 41 | 1023.2 |
| 20260502191509 | 66 | 206 | 3.0 | 13.0 | 0.00 | 0.10 | 0.00 | 42 | 1023.3 |
| 20260502190009 | 64 | 360 | 3.0 | 10.0 | 0.00 | 0.10 | 0.00 | 44 | 1023.3 |
| 20260502184508 | 64 | 233 | 2.0 | 10.0 | 0.00 | 0.10 | 0.00 | 43 | 1023.6 |
| 20260502183005 | 66 | 252 | 4.0 | 10.0 | 0.00 | 0.10 | 0.00 | 42 | 1023.8 |
| 20260502181502 | 66 | 201 | 5.0 | 11.0 | 0.00 | 0.10 | 0.00 | 40 | 1024.1 |
| 20260502163048 | 61 | 360 | 3.0 | 7.0 | 0.00 | 0.12 | 0.00 | 48 | 1024.9 |
| 20260502161545 | 60 | 236 | 3.0 | 9.0 | 0.00 | 0.12 | 0.00 | 49 | 1025.1 |
| 20260502151539 | 58 | 21 | 2.0 | 5.0 | 0.00 | 0.22 | 0.00 | 58 | 1025.1 |
| 20260502123059 | 43 | 359 | 0.0 | 0.0 | 0.00 | 0.69 | 0.00 | 90 | 1023.9 |
| 20260502121557 | 43 | 359 | 0.0 | 0.0 | 0.00 | 0.69 | 0.00 | 90 | 1023.5 |
| 20260502120105 | 43 | 359 | 0.0 | 1.0 | 0.00 | 0.69 | 0.00 | 89 | 1023.3 |
| 20260502114557 | 44 | 359 | 2.0 | 3.0 | 0.00 | 0.80 | 0.00 | 89 | 1023.2 |
| 20260502113053 | 44 | 359 | 1.0 | 3.0 | 0.00 | 0.80 | 0.00 | 89 | 1023.2 |
| 20260502111551 | 45 | 359 | 1.0 | 6.0 | 0.00 | 0.80 | 0.00 | 89 | 1023.0 |
| 20260502110056 | 45 | 356 | 5.0 | 7.0 | 0.00 | 0.80 | 0.00 | 89 | 1023.0 |
| 20260502104545 | 45 | 359 | 3.0 | 6.0 | 0.00 | 0.91 | 0.00 | 90 | 1023.1 |
| 20260502103044 | 45 | 355 | 2.0 | 5.0 | 0.00 | 0.91 | 0.00 | 90 | 1022.9 |
| 20260502101545 | 45 | 349 | 3.0 | 5.0 | 0.00 | 0.91 | 0.00 | 91 | 1022.7 |
| 20260502071527 | 47 | 347 | 2.0 | 4.0 | 0.00 | 1.17 | 0.00 | 89 | 1022.5 |
| 20260502070026 | 47 | 347 | 3.0 | 5.0 | 0.00 | 1.17 | 0.00 | 89 | 1022.5 |
| 20260502064539 | 47 | 347 | 2.0 | 3.0 | 0.00 | 1.17 | 0.00 | 89 | 1022.6 |
| 20260502063023 | 47 | 347 | 2.0 | 3.0 | 0.00 | 1.17 | 0.00 | 88 | 1022.5 |
| 20260502061515 | 47 | 347 | 1.0 | 4.0 | 0.00 | 1.17 | 0.00 | 88 | 1022.5 |
| 20260502060007 | 47 | 347 | 3.0 | 4.0 | 0.00 | 1.17 | 0.00 | 88 | 1022.4 |
| 20260502054506 | 46 | 347 | 2.0 | 5.0 | 0.00 | 1.17 | 1.17 | 88 | 1022.4 |
| 20260502053007 | 46 | 347 | 2.0 | 4.0 | 0.00 | 1.17 | 1.17 | 88 | 1022.3 |
| 20260502051504 | 46 | 347 | 2.0 | 4.0 | 0.00 | 1.17 | 1.17 | 88 | 1022.1 |
| 20260502050002 | 47 | 344 | 2.0 | 4.0 | 0.00 | 1.17 | 1.17 | 88 | 1021.8 |
| 20260502044506 | 47 | 344 | 1.0 | 4.0 | 0.00 | 1.17 | 1.17 | 88 | 1021.8 |
| 20260502043100 | 47 | 344 | 2.0 | 5.0 | 0.00 | 1.17 | 1.17 | 87 | 1021.6 |
| 20260502041559 | 47 | 344 | 4.0 | 7.0 | 0.00 | 1.17 | 1.17 | 87 | 1021.5 |
| 20260502040107 | 48 | 342 | 4.0 | 7.0 | 0.00 | 1.17 | 1.17 | 86 | 1021.3 |
| 20260502034557 | 48 | 342 | 5.0 | 9.0 | 0.00 | 1.17 | 1.17 | 87 | 1021.4 |
| 20260502033054 | 47 | 333 | 4.0 | 7.0 | 0.00 | 1.17 | 1.17 | 87 | 1021.0 |
| 20260502031609 | 47 | 93 | 2.0 | 4.0 | 0.00 | 1.17 | 1.17 | 87 | 1020.7 |
| 20260502030053 | 47 | 94 | 1.0 | 5.0 | 0.00 | 1.17 | 1.17 | 86 | 1020.7 |
| 20260502024551 | 48 | 98 | 2.0 | 4.0 | 0.00 | 1.18 | 1.17 | 85 | 1020.7 |
| 20260502023053 | 48 | 96 | 2.0 | 3.0 | 0.00 | 1.18 | 1.17 | 84 | 1020.3 |
| 20260502021547 | 48 | 96 | 1.0 | 4.0 | 0.00 | 1.18 | 1.17 | 83 | 1019.8 |
| 20260502014550 | 48 | 96 | 3.0 | 5.0 | 0.00 | 1.18 | 1.17 | 81 | 1019.2 |
| 20260502013041 | 48 | 360 | 4.0 | 10.0 | 0.00 | 1.18 | 1.17 | 81 | 1019.1 |
| 20260502011541 | 49 | 86 | 5.0 | 9.0 | 0.00 | 1.18 | 1.17 | 81 | 1018.7 |
| 20260502010039 | 49 | 72 | 6.0 | 12.0 | 0.00 | 1.18 | 1.17 | 82 | 1019.0 |
| 20260502004542 | 49 | 82 | 8.0 | 14.0 | 0.00 | 1.18 | 1.17 | 82 | 1018.9 |
| 20260502003038 | 48 | 52 | 8.0 | 13.0 | 0.00 | 1.18 | 1.17 | 82 | 1018.9 |
| 20260502001610 | 48 | 360 | 6.0 | 14.0 | 0.01 | 1.18 | 1.17 | 82 | 1018.9 |
| 20260502000036 | 48 | 41 | 10.0 | 16.0 | 0.01 | 1.18 | 1.17 | 82 | 1019.0 |
| 20260501234534 | 48 | 43 | 9.0 | 17.0 | 0.02 | 1.18 | 1.17 | 84 | 1018.6 |
| 20260501233033 | 48 | 48 | 9.0 | 16.0 | 0.03 | 1.18 | 1.17 | 86 | 1018.6 |
| 20260501231534 | 48 | 41 | 10.0 | 16.0 | 0.03 | 1.17 | 1.15 | 86 | 1018.4 |
| 20260501230031 | 50 | 40 | 8.0 | 13.0 | 0.05 | 1.17 | 1.15 | 88 | 1018.1 |
| 20260501224527 | 50 | 62 | 7.0 | 14.0 | 0.04 | 1.17 | 1.14 | 88 | 1017.9 |
| 20260501223025 | 50 | 49 | 7.0 | 13.0 | 0.04 | 1.15 | 1.13 | 88 | 1017.6 |
| 20260501221523 | 49 | 51 | 7.0 | 14.0 | 0.04 | 1.14 | 1.12 | 86 | 1017.4 |